Location: Bretagne
(43.8474°N, 0.4650°W)
Time: 09:20:05
(UTC+00:00)

NOSS 3-1 (C) - Pass Details

Date: 15 January 2026
Orbit: 618 x 1583 km, 63.4° (Epoch: 10 January)

Event Time Altitude Azimuth Distance (km) Brightness Sun altitude
Rises 19:28:23 0° 324° (NW) 3,722 7.0 -28.1°
Reaches altitude 10° 19:30:49 10° 329° (NNW) 2,899 6.3 -28.5°
Enters shadow 19:37:23 57° 37° (NE) 1,441 4.1 -29.7°
